Wind_Speed
10 11 10 9 7 5 6 6 5 5 5 5 6 8 8 7 5 6 6 7 8 9 10 12 13 15 15 16 16 17 17 18 18 18 18 20 22 24 27 29 30 30 30
9 9 8 8 6 5 6 6 6 6 6 7 7 7 8 7 6 6 6 7 8 10 12 13 15 17 18 19 20 21 21 21 21 20 20 21 23 26 28 29 31 31 30
8 7 7 7 7 6 5 6 6 7 7 8 8 8 7 7 7 6 7 8 10 12 14 16 18 20 22 23 24 24 24 24 23 22 22 23 24 27 29 30 31 31 30
7 6 7 7 7 6 5 5 7 8 7 8 9 9 8 8 8 7 8 10 12 13 15 17 19 21 23 25 26 27 27 25 24 24 23 24 26 28 30 31 32 31 30
8 7 8 7 7 6 6 7 8 9 9 9 10 10 10 10 10 10 11 12 12 14 15 17 18 20 22 24 25 25 25 24 24 24 24 25 26 28 29 31 31 31 30
10 8 9 9 8 7 6 8 10 11 11 12 11 11 11 12 12 12 13 14 13 13 14 15 18 20 22 22 22 22 21 21 21 22 23 24 25 27 28 29 29 29 28
12 10 10 10 9 9 8 8 10 12 13 14 13 12 12 12 13 14 15 15 14 13 13 15 18 19 21 21 20 20 19 18 19 20 21 23 24 25 27 28 27 27 27
13 12 11 11 11 11 10 9 9 11 13 14 13 12 12 13 14 16 17 16 14 13 13 14 16 18 19 19 19 19 19 18 18 19 20 21 23 24 25 26 26 27 27
14 13 12 13 13 12 11 9 9 10 11 12 12 12 13 14 15 17 17 16 15 14 14 14 15 16 18 18 18 18 18 18 19 19 20 21 23 24 25 25 27 27 28
14 14 14 14 14 13 12 11 10 10 11 12 13 15 15 16 17 17 18 18 18 17 17 17 16 17 18 19 19 18 18 19 20 22 22 23 24 25 27 27 28 29 30
15 15 15 15 16 15 14 13 13 13 14 15 17 18 20 21 20 20 20 21 21 21 21 21 21 20 21 21 22 22 21 21 22 24 26 27 28 29 30 31 32 33 32
16 16 17 16 17 16 15 15 15 16 17 19 20 22 23 25 25 25 24 24 25 25 25 25 25 26 26 26 27 26 26 26 26 27 29 30 31 33 34 34 35 36 36
17 17 18 18 18 18 17 17 17 19 21 22 24 25 26 27 28 29 30 29 30 30 30 30 30 31 31 31 31 30 30 29 29 30 31 33 34 35 36 37 37 38 38
19 18 19 19 19 19 19 19 20 22 23 25 27 28 29 30 31 33 35 35 35 35 35 35 35 35 35 35 35 34 34 34 33 34 35 36 38 38 39 40 40 40 40
21 21 19 19 20 20 21 22 23 24 26 28 30 32 33 35 36 38 39 39 40 39 38 39 40 40 39 38 38 39 39 39 39 38 39 39 40 41 41 41 42 42 43
22 23 21 19 20 21 23 24 25 27 29 31 33 34 36 38 39 39 40 41 41 41 40 41 42 43 43 43 43 43 44 44 44 44 44 44 43 43 43 43 43 44 45
24 23 21 20 21 22 24 26 28 29 30 32 34 34 35 37 38 39 41 41 42 41 41 42 44 45 47 47 48 49 49 49 48 48 48 48 47 46 45 45 45 46 47
24 22 21 21 23 25 28 29 31 31 31 32 33 34 35 36 37 38 39 40 41 41 42 43 44 46 49 50 52 53 53 53 52 51 50 51 50 50 49 48 48 49 49
22 20 20 23 26 29 31 31 31 30 30 30 31 33 34 35 35 36 37 38 40 41 42 44 46 47 49 51 54 55 55 55 54 52 52 53 53 53 53 51 51 51 51
20 21 23 26 28 30 31 30 29 27 27 27 28 30 31 33 34 35 36 38 41 42 43 45 47 49 50 52 55 56 56 57 55 54 56 57 57 57 56 53 53 53 53
22 25 27 29 29 28 28 27 27 26 26 27 28 29 31 33 35 36 37 39 41 42 43 44 47 48 50 53 55 57 58 58 57 57 59 60 59 59 58 56 55 54 53
27 29 31 30 29 27 26 26 26 27 28 30 31 33 35 37 40 42 43 45 47 48 49 51 52 54 54 56 58 61 61 60 58 61 62 62 61 61 59 58 56 55 54
31 32 32 31 29 28 27 28 28 30 32 34 36 39 42 44 46 49 50 52 53 54 55 56 58 59 60 60 61 64 66 65 63 61 62 63 62 61 59 59 58 57 55
32 32 31 30 30 30 31 32 33 35 37 39 42 44 47 49 51 53 54 55 56 58 59 60 62 63 64 64 64 66 68 70 71 69 64 63 64 63 61 60 59 57 55
29 29 30 30 31 33 34 36 38 39 41 43 45 47 49 51 53 55 57 59 60 62 64 65 67 68 69 70 71 71 71 72 72 74 72 66 64 63 61 61 59 57 55
28 29 30 31 33 35 36 38 40 41 43 45 48 50 52 54 57 59 61 63 64 65 67 68 69 70 71 72 72 72 71 70 68 68 69 67 64 60 59 60 60 58 56
Wind_Direction
269 277 278 272 258 240 239 240 238 238 251 252 242 236 236 246 276 312 326 331 330 325 325 325 322 317 313 311 309 311 313 314 316 322 328 332 336 339 341 343 343 341 340
268 273 266 259 246 238 238 234 228 229 236 241 242 243 246 257 280 308 324 321 317 315 316 317 316 315 312 311 309 307 308 307 307 312 317 320 326 329 332 335 336 336 335
272 265 253 247 240 238 238 232 225 220 227 240 246 248 253 268 283 299 314 313 308 310 314 315 313 312 311 309 307 305 305 302 301 303 306 310 316 319 322 325 326 329 330
270 255 244 242 243 242 233 225 219 216 226 243 253 254 260 272 283 293 302 303 305 312 317 319 319 318 316 312 308 305 302 299 297 297 300 304 309 312 315 317 319 322 324
264 248 238 238 245 247 238 229 228 228 234 246 256 262 266 271 280 290 293 295 303 313 321 326 327 326 324 320 315 309 304 300 296 296 299 303 307 310 313 315 317 320 321
269 254 240 235 241 249 251 240 238 243 246 250 257 264 269 272 280 287 290 294 302 313 323 328 328 326 324 322 321 317 312 309 305 304 306 309 311 313 316 318 320 322 323
274 264 249 239 243 252 259 257 251 253 256 258 262 267 271 275 279 284 288 292 299 308 317 324 327 326 325 323 325 325 323 319 314 313 316 318 319 319 321 323 324 325 326
273 267 259 251 252 255 259 268 269 262 259 260 266 272 277 281 283 285 287 289 295 301 309 322 330 331 330 328 328 329 329 329 326 327 329 329 328 327 327 328 328 328 329
271 267 261 254 253 254 256 263 270 265 259 259 265 270 273 278 284 289 291 292 294 296 302 315 326 333 335 336 337 338 338 337 336 336 337 335 333 331 329 329 329 331 331
272 267 261 254 252 252 253 257 262 262 258 259 264 268 270 276 283 290 294 294 293 292 296 303 313 320 325 328 332 336 337 337 335 334 333 332 329 328 328 327 327 327 327
274 269 264 256 251 251 254 259 261 261 261 262 266 269 272 276 281 286 291 293 291 289 291 294 299 303 307 311 316 320 323 324 324 324 323 323 322 321 321 321 321 321 321
275 271 266 260 251 249 252 259 262 263 264 265 268 271 273 276 279 283 286 290 291 288 286 287 290 292 295 300 304 309 312 313 314 315 315 315 315 315 315 315 315 315 316
276 273 268 262 254 251 253 257 262 265 267 268 269 271 273 276 279 282 284 287 288 287 284 283 284 286 289 293 296 300 302 304 307 308 309 309 310 311 311 311 310 311 311
282 278 270 263 256 254 257 260 265 268 270 271 272 273 273 274 277 280 283 286 287 287 285 282 280 281 284 288 291 293 295 298 300 302 303 304 306 307 307 307 306 307 307
290 286 275 261 255 254 257 262 267 271 273 273 273 274 274 274 275 278 281 284 285 284 282 279 277 277 280 283 286 289 291 293 295 297 298 299 300 301 301 301 302 302 303
291 287 277 262 256 256 259 264 271 276 278 278 277 276 275 275 276 277 279 281 282 282 281 278 277 277 278 280 283 285 287 290 292 295 297 297 296 296 297 297 297 297 298
286 281 271 263 262 263 267 272 277 280 280 279 278 277 275 274 274 275 276 278 279 280 281 281 280 280 280 281 282 283 285 287 290 292 295 296 295 295 294 294 294 294 295
279 274 266 265 269 273 277 280 282 281 280 278 277 277 277 276 276 277 278 280 281 282 282 283 283 283 282 282 282 283 285 286 288 291 293 293 294 294 293 293 293 294 294
275 270 268 272 278 282 285 286 286 285 283 281 280 280 281 281 282 283 284 284 284 284 284 284 284 284 283 282 282 283 284 285 287 289 290 291 291 292 292 293 293 293 293
270 273 276 280 284 287 289 290 290 288 285 283 283 284 285 286 287 287 288 288 288 289 288 288 287 286 285 284 284 285 285 286 288 289 289 289 291 291 292 293 293 293 292
272 278 282 284 286 287 287 288 289 289 287 286 286 288 290 292 294 295 296 296 296 296 295 294 292 291 289 287 287 287 287 288 289 289 289 290 291 291 292 293 292 292 292
281 284 285 286 286 286 286 287 288 290 291 292 294 296 297 297 298 299 299 299 299 298 297 295 293 291 289 287 287 287 286 286 287 287 288 288 289 290 291 291 290 290 291
283 285 287 288 289 289 290 290 292 294 296 298 299 300 300 301 301 301 300 299 298 297 295 293 291 289 288 286 286 286 287 287 285 286 287 288 288 289 289 290 290 290 291
280 283 286 288 291 293 294 296 298 299 301 301 301 301 302 301 301 300 299 297 296 294 293 292 290 289 289 288 288 288 288 289 289 288 287 287 288 288 288 288 289 290 291
278 282 286 290 293 296 298 299 300 301 300 300 300 299 299 298 297 296 295 294 293 292 291 290 290 290 290 289 289 289 289 289 289 289 289 287 286 288 289 289 290 291 293
280 285 290 293 296 297 298 298 298 298 297 297 296 295 295 294 294 293 292 292 291 290 289 289 289 289 290 289 289 289 289 289 290 289 289 289 288 288 287 289 291 293 294
Height
5879 5878 5878 5878 5877 5877 5877 5877 5877 5876 5876 5877 5877 5877 5877 5877 5876 5875 5874 5873 5872 5871 5870 5868 5866 5864 5862 5860 5859 5857 5855 5852 5850 5847 5845 5843 5841 5838 5835 5832 5829 5825 5822
5878 5877 5877 5876 5876 5876 5876 5876 5876 5875 5875 5876 5876 5876 5876 5876 5875 5874 5873 5872 5871 5870 5868 5866 5865 5862 5860 5858 5855 5853 5851 5849 5846 5844 5842 5840 5837 5835 5832 5829 5826 5823 5820
5876 5875 5875 5875 5875 5874 5874 5874 5874 5874 5874 5875 5875 5875 5875 5875 5874 5873 5872 5871 5869 5868 5866 5864 5862 5860 5857 5854 5851 5849 5847 5845 5842 5840 5838 5836 5834 5831 5829 5826 5824 5821 5817
5874 5874 5873 5873 5873 5873 5873 5873 5873 5872 5873 5874 5874 5874 5873 5873 5872 5871 5871 5869 5868 5865 5863 5861 5859 5856 5853 5850 5847 5845 5842 5840 5837 5836 5834 5832 5830 5827 5825 5822 5820 5816 5813
5872 5872 5871 5872 5872 5872 5872 5871 5871 5871 5871 5872 5872 5872 5871 5870 5870 5869 5868 5867 5865 5863 5860 5858 5856 5853 5850 5847 5843 5840 5838 5836 5833 5831 5830 5827 5825 5823 5821 5818 5815 5812 5809
5870 5870 5870 5869 5870 5870 5870 5870 5869 5869 5870 5870 5870 5869 5868 5868 5868 5866 5865 5864 5862 5859 5857 5855 5853 5850 5846 5843 5840 5837 5834 5832 5829 5827 5825 5823 5821 5819 5816 5813 5810 5807 5804
5868 5868 5868 5867 5867 5868 5868 5868 5867 5867 5868 5868 5867 5867 5866 5865 5864 5863 5862 5860 5858 5856 5854 5852 5850 5847 5844 5840 5837 5834 5831 5828 5826 5824 5822 5819 5817 5815 5812 5809 5806 5803 5800
5867 5866 5866 5866 5866 5866 5866 5865 5865 5865 5865 5865 5865 5864 5863 5862 5860 5859 5858 5857 5855 5853 5851 5849 5847 5844 5841 5837 5834 5831 5828 5825 5822 5820 5818 5815 5813 5811 5808 5805 5803 5800 5796
5865 5865 5865 5864 5864 5864 5864 5863 5863 5862 5862 5862 5862 5861 5860 5858 5857 5856 5855 5853 5852 5850 5848 5846 5843 5841 5838 5835 5831 5828 5825 5823 5819 5816 5814 5811 5809 5807 5804 5801 5799 5795 5792
5862 5862 5862 5863 5862 5862 5862 5861 5861 5860 5860 5859 5859 5858 5857 5855 5854 5853 5852 5850 5848 5846 5844 5842 5840 5837 5835 5832 5829 5826 5823 5820 5817 5814 5811 5808 5806 5803 5800 5797 5794 5791 5787
5859 5859 5859 5860 5859 5859 5859 5859 5858 5858 5857 5856 5856 5855 5853 5852 5850 5849 5848 5846 5844 5842 5840 5838 5836 5833 5831 5829 5826 5823 5820 5817 5814 5810 5807 5804 5801 5798 5795 5792 5788 5785 5782
5856 5856 5856 5856 5856 5856 5856 5856 5856 5855 5854 5853 5852 5851 5849 5848 5846 5845 5843 5842 5840 5837 5835 5833 5831 5829 5826 5824 5821 5818 5815 5812 5809 5805 5802 5799 5796 5792 5789 5786 5783 5779 5776
5853 5853 5852 5852 5852 5852 5853 5852 5852 5851 5850 5848 5847 5846 5844 5842 5841 5839 5837 5836 5834 5832 5829 5827 5825 5823 5820 5818 5815 5812 5809 5806 5803 5799 5796 5792 5789 5786 5782 5779 5776 5773 5769
5849 5850 5850 5849 5849 5849 5848 5848 5847 5846 5845 5843 5842 5840 5839 5837 5835 5832 5831 5829 5827 5825 5822 5820 5818 5815 5813 5810 5808 5805 5802 5799 5796 5793 5790 5786 5782 5779 5775 5772 5768 5765 5761
5846 5846 5846 5846 5846 5845 5844 5844 5842 5841 5839 5837 5835 5833 5831 5830 5828 5826 5824 5822 5819 5817 5815 5812 5810 5807 5805 5802 5799 5796 5794 5791 5788 5785 5782 5778 5774 5770 5767 5763 5760 5756 5753
5842 5841 5841 5841 5841 5841 5841 5840 5838 5836 5833 5831 5828 5826 5824 5822 5820 5818 5816 5814 5811 5809 5806 5804 5801 5799 5796 5793 5790 5787 5784 5781 5778 5775 5772 5769 5765 5761 5757 5754 5750 5747 5743
5838 5837 5836 5837 5837 5836 5836 5834 5832 5830 5827 5824 5821 5818 5816 5814 5812 5810 5808 5806 5803 5801 5798 5795 5792 5789 5786 5783 5780 5776 5774 5771 5769 5766 5762 5758 5755 5751 5747 5744 5740 5736 5733
5833 5833 5833 5833 5832 5831 5829 5828 5825 5822 5820 5817 5814 5812 5809 5807 5805 5803 5801 5798 5796 5793 5790 5787 5784 5780 5777 5774 5770 5767 5764 5761 5758 5755 5751 5747 5743 5740 5736 5732 5729 5725 5721
5829 5829 5829 5829 5827 5825 5823 5820 5818 5815 5812 5810 5807 5805 5802 5800 5798 5796 5794 5790 5787 5784 5781 5778 5775 5771 5768 5764 5759 5756 5753 5750 5747 5744 5739 5734 5731 5727 5724 5720 5717 5713 5709
5825 5825 5825 5824 5821 5819 5816 5813 5810 5808 5805 5803 5800 5798 5795 5793 5790 5788 5786 5782 5779 5776 5773 5769 5766 5761 5758 5753 5748 5745 5742 5738 5735 5732 5727 5722 5719 5715 5711 5708 5704 5700 5696
5821 5820 5819 5817 5815 5812 5809 5806 5803 5801 5798 5796 5793 5791 5788 5786 5783 5780 5777 5774 5770 5767 5764 5760 5756 5752 5748 5743 5738 5735 5731 5727 5724 5719 5714 5710 5706 5701 5698 5695 5691 5687 5684
5814 5813 5811 5810 5808 5806 5803 5800 5797 5794 5791 5789 5786 5784 5781 5778 5775 5771 5768 5765 5761 5757 5754 5749 5744 5740 5737 5731 5726 5721 5719 5718 5713 5706 5701 5697 5692 5688 5685 5681 5677 5674 5671
5807 5805 5803 5801 5800 5798 5796 5793 5791 5788 5785 5782 5779 5776 5772 5769 5765 5761 5758 5754 5750 5746 5742 5737 5731 5726 5722 5718 5712 5706 5701 5700 5699 5695 5688 5683 5679 5674 5671 5667 5662 5659 5656
5800 5798 5797 5794 5792 5790 5788 5785 5783 5780 5777 5774 5770 5767 5763 5758 5754 5750 5746 5742 5738 5733 5728 5723 5718 5712 5707 5703 5698 5692 5686 5681 5676 5675 5675 5669 5663 5659 5656 5652 5648 5645 5641
5794 5792 5790 5788 5785 5782 5780 5777 5775 5772 5768 5765 5761 5757 5753 5748 5743 5739 5734 5729 5724 5719 5714 5708 5702 5697 5691 5686 5681 5676 5670 5664 5658 5652 5652 5653 5648 5644 5640 5635 5632 5630 5627
5788 5786 5784 5781 5778 5775 5772 5769 5766 5762 5759 5755 5751 5746 5742 5737 5732 5726 5721 5716 5710 5704 5699 5693 5687 5681 5674 5668 5663 5657 5651 5646 5642 5636 5631 5630 5629 5629 5624 5619 5616 5614 5611